Stations météo

réclame
Mon MeteoGroup
Falsterbo, Suède (2616): Température de l'air & dewpoint: 17.10.2018 12:00:00 - 23.10.2018 12:00:00 (CEST)Falsterbo, Suède (2616): Vitesse du vent: 17.10.2018 12:00:00 - 23.10.2018 12:00:00 (CEST)Falsterbo, Suède (2616): Direction du vent: 17.10.2018 12:00:00 - 23.10.2018 12:00:00 (CEST)Falsterbo, Suède (2616): reduced air pressure: 17.10.2018 12:00:00 - 23.10.2018 12:00:00 (CEST)Falsterbo, Suède (2616): visibility: 17.10.2018 12:00:00 - 23.10.2018 12:00:00 (CEST)
Date & Time tt [°C] td [°C] ff [km/h] ff [knt] dd ppp [hPa] vv [km]
23.10.2018 12:00:00 - - - - - - -
23.10.2018 11:00:00 11,9 9,1 61 33 WNW 1001,8 16
23.10.2018 10:00:00 - - - - - - -
23.10.2018 09:00:00 - - - - - - -
23.10.2018 08:00:00 10,7 9,3 54 29 W 1004,2 4,5
23.10.2018 07:00:00 - - - - - - -
23.10.2018 06:00:00 - - - - - - -
23.10.2018 05:00:00 10,4 9,0 58 31 WSW 1009,7 4,5
23.10.2018 04:00:00 - - - - - - -
23.10.2018 03:00:00 - - - - - - -
23.10.2018 02:00:00 10,7 6,3 47 25 W 1016,9 25
23.10.2018 01:00:00 - - - - - - -
23.10.2018 00:00:00 - - - - - - -
22.10.2018 23:00:00 9,6 5,6 43 23 WSW 1022,1 25
22.10.2018 22:00:00 - - - - - - -
22.10.2018 21:00:00 - - - - - - -
22.10.2018 20:00:00 10,1 4,9 40 21 W 1024,0 30
22.10.2018 19:00:00 - - - - - - -
22.10.2018 18:00:00 - - - - - - -
22.10.2018 17:00:00 11,2 4,4 43 23 WNW 1025,1 20
22.10.2018 16:00:00 - - - - - - -
22.10.2018 15:00:00 - - - - - - -
22.10.2018 14:00:00 11,5 4,5 47 25 NW 1024,6 20
22.10.2018 13:00:00 - - - - - - -
22.10.2018 12:00:00 - - - - - - -
22.10.2018 11:00:00 10,9 6,1 43 23 NW 1024,5 23
22.10.2018 10:00:00 - - - - - - -
22.10.2018 09:00:00 - - - - - - -
22.10.2018 08:00:00 10,8 7,7 40 21 NW 1022,7 24
22.10.2018 07:00:00 - - - - - - -
22.10.2018 06:00:00 - - - - - - -
22.10.2018 05:00:00 12,1 11,2 29 16 W 1021,1 15
22.10.2018 04:00:00 - - - - - - -
22.10.2018 03:00:00 - - - - - - -
22.10.2018 02:00:00 12,5 10,9 36 19 WSW 1021,5 5
22.10.2018 01:00:00 - - - - - - -
22.10.2018 00:00:00 - - - - - - -
21.10.2018 23:00:00 12,8 11,2 25 14 SW 1022,5 4,5
21.10.2018 22:00:00 - - - - - - -
21.10.2018 21:00:00 - - - - - - -
21.10.2018 20:00:00 12,4 11,3 25 14 SSW 1023,5 5
21.10.2018 19:00:00 - - - - - - -
21.10.2018 18:00:00 - - - - - - -
21.10.2018 17:00:00 12,2 10,8 25 14 SSW 1024,3 6
21.10.2018 16:00:00 - - - - - - -
21.10.2018 15:00:00 - - - - - - -
21.10.2018 14:00:00 12,9 10,6 22 12 SSW 1025,8 22
21.10.2018 13:00:00 - - - - - - -
21.10.2018 12:00:00 - - - - - - -
21.10.2018 11:00:00 11,9 10,5 18 10 SW 1027,3 18
21.10.2018 10:00:00 - - - - - - -
21.10.2018 09:00:00 - - - - - - -
21.10.2018 08:00:00 9,9 8,7 11 6 WSW 1026,8 27
21.10.2018 07:00:00 - - - - - - -
21.10.2018 06:00:00 - - - - - - -
21.10.2018 05:00:00 10,2 8,3 14 8 WNW 1027,2 28
21.10.2018 04:00:00 - - - - - - -
21.10.2018 03:00:00 - - - - - - -
21.10.2018 02:00:00 10,8 8,9 14 8 WNW 1027,1 28
21.10.2018 01:00:00 - - - - - - -
21.10.2018 00:00:00 - - - - - - -
20.10.2018 23:00:00 11,2 8,6 18 10 NW 1026,9 30
20.10.2018 22:00:00 - - - - - - -
20.10.2018 21:00:00 - - - - - - -
20.10.2018 20:00:00 11,7 8,7 22 12 WNW 1026,7 30
20.10.2018 19:00:00 - - - - - - -
20.10.2018 18:00:00 - - - - - - -
20.10.2018 17:00:00 12,3 8,8 25 14 NW 1026,0 30
20.10.2018 16:00:00 - - - - - - -
20.10.2018 15:00:00 - - - - - - -
20.10.2018 14:00:00 12,7 9,0 22 12 WNW 1025,5 45
20.10.2018 13:00:00 - - - - - - -
20.10.2018 12:00:00 - - - - - - -
20.10.2018 11:00:00 11,4 9,1 29 16 W 1025,1 25
20.10.2018 10:00:00 - - - - - - -
20.10.2018 09:00:00 - - - - - - -
20.10.2018 08:00:00 10,1 7,5 29 16 W 1025,1 8
20.10.2018 07:00:00 - - - - - - -
20.10.2018 06:00:00 - - - - - - -
20.10.2018 05:00:00 10,9 3,2 25 14 WNW 1024,4 40
20.10.2018 04:00:00 - - - - - - -
20.10.2018 03:00:00 - - - - - - -
20.10.2018 02:00:00 11,1 6,4 22 12 W 1024,8 40
20.10.2018 01:00:00 - - - - - - -
20.10.2018 00:00:00 - - - - - - -
19.10.2018 23:00:00 11,2 5,5 22 12 W 1025,0 45
19.10.2018 22:00:00 - - - - - - -
19.10.2018 21:00:00 - - - - - - -
19.10.2018 20:00:00 11,0 4,9 14 8 WNW 1024,8 40
19.10.2018 19:00:00 - - - - - - -
19.10.2018 18:00:00 - - - - - - -
19.10.2018 17:00:00 11,2 6,4 11 6 WNW 1024,3 45
19.10.2018 16:00:00 - - - - - - -
19.10.2018 15:00:00 - - - - - - -
19.10.2018 14:00:00 12,2 7,9 14 8 WNW 1025,5 40
19.10.2018 13:00:00 - - - - - - -
19.10.2018 12:00:00 - - - - - - -
19.10.2018 11:00:00 11,0 7,9 11 6 WNW 1025,7 35
19.10.2018 10:00:00 - - - - - - -
19.10.2018 09:00:00 - - - - - - -
19.10.2018 08:00:00 9,8 7,1 14 8 NNW 1025,0 35
19.10.2018 07:00:00 - - - - - - -
19.10.2018 06:00:00 - - - - - - -
19.10.2018 05:00:00 9,9 7,8 14 8 NNW 1024,6 40
19.10.2018 04:00:00 - - - - - - -
19.10.2018 03:00:00 - - - - - - -
19.10.2018 02:00:00 10,1 7,5 14 8 NNW 1024,8 40
19.10.2018 01:00:00 - - - - - - -
19.10.2018 00:00:00 - - - - - - -
18.10.2018 23:00:00 10,6 7,5 25 14 NNW 1024,8 40
18.10.2018 22:00:00 - - - - - - -
18.10.2018 21:00:00 - - - - - - -
18.10.2018 20:00:00 11,2 7,3 25 14 NNW 1023,8 40
18.10.2018 19:00:00 - - - - - - -
18.10.2018 18:00:00 - - - - - - -
18.10.2018 17:00:00 12,7 6,7 29 16 NNW 1022,5 45
18.10.2018 16:00:00 - - - - - - -
18.10.2018 15:00:00 - - - - - - -
18.10.2018 14:00:00 14,2 10,4 22 12 N 1021,8 40
18.10.2018 13:00:00 - - - - - - -
18.10.2018 12:00:00 - - - - - - -
18.10.2018 11:00:00 13,1 12,3 25 14 NNW 1021,2 9
18.10.2018 10:00:00 - - - - - - -
18.10.2018 09:00:00 - - - - - - -
18.10.2018 08:00:00 12,3 12,0 18 10 NNW 1019,6 0,1
18.10.2018 07:00:00 - - - - - - -
18.10.2018 06:00:00 - - - - - - -
18.10.2018 05:00:00 11,7 11,2 11 6 WNW 1018,8 1,0
18.10.2018 04:00:00 - - - - - - -
18.10.2018 03:00:00 - - - - - - -
18.10.2018 02:00:00 11,0 10,4 7 4 SE 1019,0 2,3
18.10.2018 01:00:00 - - - - - - -
18.10.2018 00:00:00 - - - - - - -
17.10.2018 23:00:00 10,7 9,8 7 4 SSE 1019,9 2,5
17.10.2018 22:00:00 - - - - - - -
17.10.2018 21:00:00 - - - - - - -
17.10.2018 20:00:00 12,5 11,9 14 8 SE 1019,5 2,3
17.10.2018 19:00:00 - - - - - - -
17.10.2018 18:00:00 - - - - - - -
17.10.2018 17:00:00 13,4 11,6 7 4 ESE 1019,3 4,5
17.10.2018 16:00:00 - - - - - - -
17.10.2018 15:00:00 - - - - - - -
17.10.2018 14:00:00 14,8 12,5 7 4 ESE 1019,5 3,3
17.10.2018 13:00:00 - - - - - - -
17.10.2018 12:00:00 - - - - - - -

tt = Température de l'air
td = dewpoint
ff = Vitesse du vent
dd = Direction du vent
ppp = reduced air pressure
vv = visibility

stations d'obs. à proximité